| time (UTC) | temp F | wind direction | speed knots | gust knots | rain 1hr in | rain 24hr in | rain mn in | humidity % | barometer mb |
| 20260509000355 | 56 | 209 | 0.0 | 0.0 | 0.00 | 0.00 | 0.00 | 88 | 1010.4 |
| 20260508235340 | 57 | 209 | 0.0 | 0.0 | 0.00 | 0.00 | 0.00 | 88 | 1010.4 |
| 20260508234323 | 57 | 209 | 0.0 | 0.0 | 0.00 | 0.00 | 0.00 | 87 | 1010.5 |
| 20260508233351 | 57 | 209 | 0.0 | 0.0 | 0.00 | 0.00 | 0.00 | 85 | 1010.4 |
| 20260508232314 | 58 | 209 | 0.0 | 0.0 | 0.00 | 0.00 | 0.00 | 84 | 1010.5 |
| 20260508231320 | 58 | 209 | 0.0 | 0.0 | 0.00 | 0.00 | 0.00 | 82 | 1010.5 |
| 20260508230327 | 59 | 209 | 0.0 | 0.0 | 0.00 | 0.00 | 0.00 | 79 | 1010.3 |
| 20260508225332 | 59 | 209 | 0.0 | 0.0 | 0.00 | 0.00 | 0.00 | 77 | 1010.2 |
| 20260508224320 | 60 | 209 | 0.0 | 0.0 | 0.00 | 0.00 | 0.00 | 73 | 1010.3 |
| 20260508223324 | 61 | 209 | 0.0 | 0.0 | 0.00 | 0.00 | 0.00 | 71 | 1010.1 |
| 20260508222349 | 62 | 209 | 0.0 | 0.0 | 0.00 | 0.00 | 0.00 | 65 | 1010.3 |
| 20260508221333 | 63 | 209 | 0.0 | 0.0 | 0.00 | 0.00 | 0.00 | 68 | 1010.3 |
| 20260508220339 | 63 | 209 | 0.0 | 0.0 | 0.00 | 0.00 | 0.00 | 62 | 1010.3 |
| 20260508215324 | 64 | 209 | 0.0 | 0.0 | 0.00 | 0.00 | 0.00 | 57 | 1010.1 |
| 20260508214329 | 65 | 210 | 0.0 | 0.9 | 0.00 | 0.00 | 0.00 | 58 | 1010.2 |
| 20260508213319 | 66 | 209 | 0.0 | 0.0 | 0.00 | 0.00 | 0.00 | 51 | 1010.1 |
| 20260508212325 | 66 | 209 | 0.0 | 0.9 | 0.00 | 0.00 | 0.00 | 48 | 1010.2 |
| 20260508211331 | 66 | 249 | 0.9 | 1.7 | 0.00 | 0.00 | 0.00 | 46 | 1010.2 |
| 20260508210316 | 66 | 240 | 0.0 | 1.7 | 0.00 | 0.00 | 0.00 | 46 | 1010.4 |
| 20260508205320 | 67 | 242 | 1.7 | 3.5 | 0.00 | 0.00 | 0.00 | 45 | 1010.6 |
| 20260508204343 | 67 | 264 | 1.7 | 5.2 | 0.00 | 0.00 | 0.00 | 44 | 1010.7 |
| 20260508203328 | 67 | 247 | 2.6 | 6.1 | 0.00 | 0.00 | 0.00 | 44 | 1010.8 |
| 20260508202317 | 67 | 236 | 1.7 | 6.1 | 0.00 | 0.00 | 0.00 | 44 | 1010.9 |
| 20260508201321 | 67 | 229 | 2.6 | 7.0 | 0.00 | 0.00 | 0.00 | 43 | 1011.0 |
| 20260508200325 | 67 | 223 | 4.3 | 8.7 | 0.00 | 0.00 | 0.00 | 43 | 1011.0 |
| 20260508195328 | 67 | 214 | 1.7 | 5.2 | 0.00 | 0.00 | 0.00 | 44 | 1011.1 |
| 20260508194314 | 67 | 225 | 2.6 | 5.2 | 0.00 | 0.00 | 0.00 | 43 | 1011.2 |
| 20260508193341 | 67 | 263 | 2.6 | 5.2 | 0.00 | 0.00 | 0.00 | 45 | 1011.2 |
| 20260508192325 | 68 | 6 | 1.7 | 5.2 | 0.00 | 0.00 | 0.00 | 44 | 1011.4 |
| 20260508191350 | 68 | 220 | 1.7 | 5.2 | 0.00 | 0.00 | 0.00 | 45 | 1011.5 |
| 20260508190335 | 69 | 259 | 3.5 | 8.7 | 0.00 | 0.00 | 0.00 | 43 | 1011.6 |
| 20260508185323 | 69 | 210 | 2.6 | 6.1 | 0.00 | 0.00 | 0.00 | 44 | 1011.9 |
| 20260508184329 | 68 | 237 | 2.6 | 11.3 | 0.00 | 0.00 | 0.00 | 46 | 1012.1 |
| 20260508183317 | 68 | 233 | 2.6 | 7.8 | 0.00 | 0.00 | 0.00 | 46 | 1012.0 |
| 20260508182321 | 67 | 255 | 4.3 | 8.7 | 0.00 | 0.00 | 0.00 | 45 | 1012.2 |
| 20260508181327 | 67 | 245 | 6.1 | 8.7 | 0.00 | 0.00 | 0.00 | 45 | 1012.3 |
| 20260508180333 | 67 | 195 | 3.5 | 11.3 | 0.00 | 0.00 | 0.00 | 46 | 1012.6 |
| 20260508175317 | 67 | 207 | 3.5 | 7.8 | 0.00 | 0.00 | 0.00 | 46 | 1012.9 |
| 20260508174325 | 67 | 238 | 4.3 | 7.8 | 0.00 | 0.00 | 0.00 | 46 | 1012.9 |
| 20260508173327 | 66 | 248 | 3.5 | 10.4 | 0.00 | 0.00 | 0.00 | 47 | 1013.0 |
| 20260508172332 | 65 | 236 | 4.3 | 10.4 | 0.00 | 0.00 | 0.00 | 46 | 1013.1 |
| 20260508171316 | 66 | 240 | 4.3 | 12.2 | 0.00 | 0.00 | 0.00 | 45 | 1013.3 |
| 20260508170322 | 67 | 241 | 3.5 | 8.7 | 0.00 | 0.00 | 0.00 | 45 | 1013.3 |
| 20260508165326 | 67 | 220 | 5.2 | 13.0 | 0.00 | 0.00 | 0.00 | 45 | 1013.6 |
| 20260508164331 | 66 | 194 | 5.2 | 11.3 | 0.00 | 0.00 | 0.00 | 45 | 1013.8 |
| 20260508163316 | 66 | 192 | 5.2 | 10.4 | 0.00 | 0.00 | 0.00 | 47 | 1013.9 |
| 20260508162320 | 66 | 226 | 2.6 | 9.6 | 0.00 | 0.00 | 0.00 | 49 | 1013.9 |
| 20260508161324 | 66 | 211 | 3.5 | 12.2 | 0.00 | 0.00 | 0.00 | 49 | 1014.0 |
| 20260508160317 | 65 | 254 | 5.2 | 13.0 | 0.00 | 0.00 | 0.00 | 47 | 1014.1 |
| 20260508155322 | 65 | 242 | 6.1 | 11.3 | 0.00 | 0.00 | 0.00 | 45 | 1014.2 |
| 20260508154348 | 65 | 252 | 5.2 | 10.4 | 0.00 | 0.00 | 0.00 | 47 | 1014.2 |
| 20260508153352 | 65 | 240 | 7.0 | 11.3 | 0.00 | 0.00 | 0.00 | 46 | 1014.4 |
| 20260508152317 | 63 | 207 | 3.5 | 7.0 | 0.00 | 0.00 | 0.00 | 51 | 1014.4 |
| 20260508151320 | 63 | 241 | 4.3 | 9.6 | 0.00 | 0.00 | 0.00 | 51 | 1014.4 |
| 20260508150326 | 62 | 210 | 3.5 | 7.0 | 0.00 | 0.00 | 0.00 | 53 | 1014.6 |
| 20260508145315 | 61 | 195 | 4.3 | 8.7 | 0.00 | 0.00 | 0.00 | 55 | 1014.6 |
| 20260508144321 | 60 | 222 | 2.6 | 5.2 | 0.00 | 0.00 | 0.00 | 57 | 1014.8 |
| 20260508143327 | 59 | 229 | 1.7 | 8.7 | 0.00 | 0.00 | 0.00 | 56 | 1014.9 |
| 20260508142332 | 59 | 199 | 3.5 | 6.1 | 0.00 | 0.00 | 0.00 | 56 | 1014.9 |
| 20260508141319 | 58 | 247 | 3.5 | 7.0 | 0.00 | 0.00 | 0.00 | 55 | 1015.1 |
| 20260508140405 | 57 | 214 | 3.5 | 7.8 | 0.00 | 0.00 | 0.00 | 56 | 1015.2 |
| 20260508135326 | 57 | 226 | 2.6 | 7.8 | 0.00 | 0.00 | 0.00 | 56 | 1015.2 |
| 20260508134329 | 57 | 244 | 3.5 | 7.0 | 0.00 | 0.00 | 0.00 | 54 | 1015.3 |
| 20260508133319 | 57 | 274 | 2.6 | 5.2 | 0.00 | 0.00 | 0.00 | 58 | 1015.3 |
| 20260508132343 | 56 | 266 | 1.7 | 5.2 | 0.00 | 0.00 | 0.00 | 59 | 1015.1 |
| 20260508131327 | 55 | 228 | 3.5 | 8.7 | 0.00 | 0.00 | 0.00 | 59 | 1015.1 |
| 20260508130313 | 54 | 26 | 2.6 | 6.1 | 0.00 | 0.00 | 0.00 | 61 | 1015.1 |
| 20260508125319 | 54 | 226 | 3.5 | 7.0 | 0.00 | 0.00 | 0.00 | 62 | 1015.1 |
| 20260508124322 | 52 | 210 | 1.7 | 3.5 | 0.00 | 0.00 | 0.00 | 68 | 1015.1 |
| 20260508123328 | 51 | 230 | 0.9 | 2.6 | 0.00 | 0.00 | 0.00 | 73 | 1015.1 |
| 20260508122333 | 49 | 133 | 0.9 | 2.6 | 0.00 | 0.00 | 0.00 | 76 | 1015.1 |
| 20260508121341 | 48 | 210 | 0.0 | 1.7 | 0.00 | 0.00 | 0.00 | 84 | 1015.1 |
| 20260508120328 | 46 | 200 | 0.0 | 0.9 | 0.00 | 0.00 | 0.00 | 93 | 1015.2 |
| 20260508115314 | 45 | 217 | 0.0 | 0.0 | 0.00 | 0.00 | 0.00 | 96 | 1014.9 |
| 20260508114319 | 44 | 217 | 0.0 | 0.0 | 0.00 | 0.00 | 0.00 | 96 | 1014.9 |
| 20260508113345 | 44 | 217 | 0.0 | 0.0 | 0.00 | 0.00 | 0.00 | 96 | 1014.9 |
| 20260508112328 | 43 | 217 | 0.0 | 0.0 | 0.00 | 0.00 | 0.00 | 96 | 1014.7 |
| 20260508111352 | 43 | 217 | 0.0 | 0.0 | 0.00 | 0.00 | 0.00 | 96 | 1014.8 |
| 20260508110317 | 43 | 217 | 0.0 | 0.0 | 0.00 | 0.00 | 0.00 | 96 | 1014.7 |
| 20260508105321 | 42 | 217 | 0.0 | 0.0 | 0.00 | 0.00 | 0.00 | 96 | 1014.6 |
| 20260508104348 | 42 | 217 | 0.0 | 0.0 | 0.00 | 0.00 | 0.00 | 96 | 1014.5 |
| 20260508103338 | 42 | 217 | 0.0 | 0.0 | 0.00 | 0.00 | 0.00 | 96 | 1014.4 |
| 20260508102320 | 42 | 217 | 0.0 | 0.0 | 0.00 | 0.00 | 0.00 | 96 | 1014.5 |
| 20260508101344 | 41 | 217 | 0.0 | 0.0 | 0.00 | 0.00 | 0.00 | 96 | 1014.6 |
| 20260508100328 | 41 | 217 | 0.0 | 0.0 | 0.00 | 0.00 | 0.00 | 96 | 1014.6 |
| 20260508095352 | 40 | 217 | 0.0 | 0.0 | 0.00 | 0.00 | 0.00 | 96 | 1014.6 |
| 20260508094318 | 40 | 217 | 0.0 | 0.0 | 0.00 | 0.00 | 0.00 | 95 | 1014.6 |
| 20260508093323 | 40 | 217 | 0.0 | 0.0 | 0.00 | 0.00 | 0.00 | 95 | 1014.6 |
| 20260508092328 | 40 | 217 | 0.0 | 0.0 | 0.00 | 0.00 | 0.00 | 95 | 1014.8 |
| 20260508091314 | 40 | 217 | 0.0 | 0.0 | 0.00 | 0.00 | 0.00 | 95 | 1014.7 |
| 20260508090319 | 40 | 217 | 0.0 | 0.0 | 0.00 | 0.00 | 0.00 | 95 | 1014.7 |
| 20260508085326 | 40 | 217 | 0.0 | 0.0 | 0.00 | 0.00 | 0.00 | 95 | 1014.8 |
| 20260508084332 | 40 | 217 | 0.0 | 0.0 | 0.00 | 0.00 | 0.00 | 95 | 1014.7 |
| 20260508083319 | 40 | 217 | 0.0 | 0.0 | 0.00 | 0.00 | 0.00 | 95 | 1014.7 |
| 20260508082324 | 39 | 217 | 0.0 | 0.0 | 0.00 | 0.00 | 0.00 | 95 | 1014.7 |
| 20260508081329 | 39 | 217 | 0.0 | 0.0 | 0.00 | 0.00 | 0.00 | 95 | 1014.6 |
| 20260508080333 | 39 | 217 | 0.0 | 0.0 | 0.00 | 0.00 | 0.00 | 94 | 1014.6 |
| 20260508075321 | 40 | 217 | 0.0 | 0.0 | 0.00 | 0.00 | 0.00 | 95 | 1014.5 |
| 20260508074347 | 39 | 217 | 0.0 | 0.0 | 0.00 | 0.00 | 0.00 | 94 | 1014.6 |
| 20260508073331 | 40 | 217 | 0.0 | 0.0 | 0.00 | 0.00 | 0.00 | 94 | 1014.6 |
| 20260508072315 | 40 | 217 | 0.0 | 0.0 | 0.00 | 0.00 | 0.00 | 95 | 1014.6 |
| 20260508071339 | 40 | 217 | 0.0 | 0.0 | 0.00 | 0.00 | 0.00 | 94 | 1014.7 |
| 20260508070326 | 40 | 217 | 0.0 | 0.0 | 0.00 | 0.00 | 0.00 | 94 | 1014.8 |
| 20260508065332 | 40 | 217 | 0.0 | 0.0 | 0.00 | 0.00 | 0.00 | 94 | 1014.8 |
| 20260508064319 | 40 | 217 | 0.0 | 0.0 | 0.00 | 0.00 | 0.00 | 94 | 1014.9 |
| 20260508063346 | 40 | 217 | 0.0 | 0.0 | 0.00 | 0.00 | 0.00 | 94 | 1015.1 |
| 20260508062331 | 41 | 217 | 0.0 | 0.0 | 0.00 | 0.00 | 0.00 | 94 | 1015.1 |
| 20260508061315 | 40 | 217 | 0.0 | 0.0 | 0.00 | 0.00 | 0.00 | 94 | 1015.1 |
| 20260508060321 | 41 | 217 | 0.0 | 0.0 | 0.00 | 0.00 | 0.00 | 93 | 1015.2 |
| 20260508055325 | 41 | 217 | 0.0 | 0.0 | 0.00 | 0.00 | 0.00 | 93 | 1015.2 |
| 20260508054327 | 42 | 217 | 0.0 | 0.0 | 0.00 | 0.00 | 0.00 | 93 | 1015.2 |
| 20260508053333 | 42 | 225 | 0.0 | 0.0 | 0.00 | 0.00 | 0.00 | 93 | 1015.3 |
| 20260508052322 | 42 | 225 | 0.0 | 0.0 | 0.00 | 0.00 | 0.00 | 93 | 1015.3 |
| 20260508051328 | 42 | 225 | 0.0 | 0.0 | 0.00 | 0.00 | 0.00 | 93 | 1015.2 |
| 20260508050352 | 43 | 225 | 0.0 | 0.0 | 0.00 | 0.00 | 0.00 | 93 | 1015.2 |
| 20260508045316 | 42 | 225 | 0.0 | 0.0 | 0.00 | 0.00 | 0.00 | 93 | 1015.2 |
| 20260508044320 | 43 | 225 | 0.0 | 0.0 | 0.00 | 0.00 | 0.00 | 92 | 1015.2 |
| 20260508043326 | 43 | 225 | 0.0 | 0.0 | 0.00 | 0.00 | 0.00 | 93 | 1015.1 |
| 20260508042332 | 43 | 224 | 0.0 | 0.0 | 0.00 | 0.00 | 0.00 | 91 | 1015.0 |
| 20260508041321 | 43 | 225 | 0.0 | 0.0 | 0.00 | 0.00 | 0.00 | 91 | 1015.0 |
| 20260508040326 | 43 | 225 | 0.0 | 0.0 | 0.00 | 0.00 | 0.00 | 91 | 1015.0 |
| 20260508035351 | 43 | 225 | 0.0 | 0.0 | 0.00 | 0.00 | 0.00 | 90 | 1014.9 |
| 20260508034314 | 44 | 225 | 0.0 | 0.0 | 0.00 | 0.00 | 0.00 | 90 | 1015.0 |
| 20260508033320 | 44 | 224 | 0.0 | 0.0 | 0.00 | 0.00 | 0.00 | 89 | 1015.0 |
| 20260508032324 | 45 | 225 | 0.0 | 0.0 | 0.00 | 0.00 | 0.00 | 89 | 1014.8 |
| 20260508031328 | 45 | 225 | 0.0 | 0.0 | 0.00 | 0.00 | 0.00 | 87 | 1015.1 |
| 20260508030332 | 45 | 225 | 0.0 | 0.0 | 0.00 | 0.00 | 0.00 | 87 | 1014.9 |
| 20260508025314 | 45 | 225 | 0.0 | 0.0 | 0.00 | 0.00 | 0.00 | 87 | 1014.9 |
| 20260508024320 | 46 | 225 | 0.0 | 0.0 | 0.00 | 0.00 | 0.00 | 86 | 1014.8 |
| 20260508023327 | 46 | 225 | 0.0 | 0.0 | 0.00 | 0.00 | 0.00 | 86 | 1014.7 |
| 20260508022353 | 45 | 225 | 0.0 | 0.0 | 0.00 | 0.00 | 0.00 | 86 | 1014.8 |
| 20260508021318 | 45 | 225 | 0.0 | 0.0 | 0.00 | 0.00 | 0.00 | 84 | 1014.7 |
| 20260508020322 | 46 | 224 | 0.0 | 0.0 | 0.00 | 0.00 | 0.00 | 82 | 1014.7 |
| 20260508015326 | 47 | 225 | 0.0 | 0.0 | 0.00 | 0.00 | 0.00 | 81 | 1014.8 |
| 20260508014328 | 47 | 224 | 0.0 | 0.0 | 0.00 | 0.00 | 0.00 | 79 | 1014.7 |
| 20260508013355 | 47 | 224 | 0.0 | 0.0 | 0.00 | 0.00 | 0.00 | 77 | 1014.7 |
| 20260508012320 | 48 | 225 | 0.0 | 0.0 | 0.00 | 0.00 | 0.00 | 75 | 1014.7 |
| 20260508011325 | 49 | 225 | 0.0 | 0.0 | 0.00 | 0.00 | 0.00 | 71 | 1014.7 |
| 20260508010317 | 50 | 224 | 0.0 | 0.0 | 0.00 | 0.00 | 0.00 | 69 | 1014.7 |
| 20260508005322 | 51 | 225 | 0.0 | 0.0 | 0.00 | 0.00 | 0.00 | 64 | 1014.7 |
| 20260508004328 | 52 | 225 | 0.0 | 0.0 | 0.00 | 0.00 | 0.00 | 62 | 1014.7 |
| 20260508003315 | 54 | 225 | 0.0 | 0.0 | 0.00 | 0.00 | 0.00 | 56 | 1014.6 |
| 20260508002341 | 55 | 224 | 0.0 | 0.0 | 0.00 | 0.00 | 0.00 | 55 | 1014.5 |
| 20260508001324 | 57 | 225 | 0.0 | 1.7 | 0.00 | 0.00 | 0.00 | 47 | 1014.5 |